YAMAL 601

Last updated on Wed Sep 17 2025 00:02:50 GMT+0000 (Coordinated Universal Time)

1 44307U 19031A 25259.59343873 .00000101 00000+0 00000+0 0 9997 2 44307 0.0119 169.7506 0002450 4.1237 84.5468 1.00270926 23178
UTC large
Height (km)
Speed (km/s)
/
Latitude / Longitude
Inclination (degrees)
Orbital Period (minutes)
Azimuth
Elevation
Range (km)
Doppler Factor

Next 0 passes for location: London (51.5072 / 0.1276)

Sorry there are no passes over London.